Location: Sunny Point
(33.0946°N, 85.0574°W)
Time: 07:20:24
(UTC+00:00)

Envisat - Pass Details

Date: 23 May 2024
Orbit: 762 x 764 km, 98.3° (Epoch: 20 June)

Event Time Altitude Azimuth Distance (km) Brightness Sun altitude
Rises 08:16:20 0° 23° (NNE) 3,229 7.4 -24.1°
Reaches altitude 10° 08:18:50 10° 32° (NNE) 2,300 6.5 -23.8°
Maximum altitude 08:23:28 35° 98° (E) 1,204 4.2 -23.1°
Enters shadow 08:26:28 19° 153° (SSE) 1,749 4.6 -22.7°
